Regional Weather Roundup
Issued by NWS Little Rock, AR

Home | Current Version | Previous Version | Text Only | Print | Product List | Glossary On
Versions: 1 2 3 4 5 6 7 8 9 10 11 12 13 14 15 16 17 18 19 20 21 22 23 24 25 26 27 28 29 30 31 32 33 34 35 36 37 38 39 40 41 42 43 44 45 46 47 48 49
000
ASUS44 KLZK 301905
RWRLZK

WEATHER ROUNDUP FOR ARKANSAS
NATIONAL WEATHER SERVICE LITTLE ROCK AR
200 PM CDT SAT MAY 30 2015

NOTE: "FAIR" INDICATES FEW OR NO CLOUDS BELOW 12,000 FEET WITH NO
SIGNIFICANT WEATHER AND/OR OBSTRUCTIONS TO VISIBILITY.

ARZ001-003-010-029-302000-
NORTHWEST ARKANSAS

CITY           SKY/WX    TMP DP  RH WIND       PRES   REMARKS
FAYETTEVILLE   LGT RAIN  70  66  87 W9        30.08F
FORT SMITH     CLOUDY    73  65  75 W6        30.06F
HARRISON       PTSUNNY   74  64  71 W9G17     30.05S
BENTONVILLE    CLOUDY    66  63  88 NW12      30.09S
ROGERS         CLOUDY    68  65  90 NW9       30.09F
SILOAM SPGS    CLOUDY    66  59  77 NW12      30.11F
HIGHFILL       CLOUDY    66  64  93 NW10      30.09S
SPRINGDALE     CLOUDY    70  66  88 NW13      30.10F
$$

ARZ004-005-016-302000-
NORTH CENTRAL ARKANSAS

CITY           SKY/WX    TMP DP  RH WIND       PRES   REMARKS
BATESVILLE     PTSUNNY   79  68  69 W9        29.99F
FLIPPIN        PTSUNNY   79  66  65 W9        29.99S
MTN HOME       MOSUNNY   77  66  68 W7        29.99F
$$

ARZ040-041-302000-
WEST CENTRAL ARKANSAS

CITY           SKY/WX    TMP DP  RH WIND       PRES   REMARKS
MENA           CLOUDY    75  66  73 NW6       30.08F
MOUNT IDA      CLOUDY    79  65  62 VRB3      30.04F
$$

ARZ009-017-025-026-028-302000-
NORTHEAST ARKANSAS

CITY           SKY/WX    TMP DP  RH WIND       PRES   REMARKS
CORNING          N/A     75  70  83 W17G25    29.95R
JONESBORO      CLOUDY    72  70  93 SW12      29.97S
NEWPORT        CLOUDY    78  70  76 W10       29.99F
WALNUT RIDGE   CLOUDY    77  64  65 W13       29.96S
BLYTHEVILLE    LGT RAIN  78  70  76 SW16G28   29.95F
$$

ARZ022-023-033-042-044-302000-
CENTRAL ARKANSAS

CITY           SKY/WX    TMP DP  RH WIND       PRES   REMARKS
LITTLE ROCK    PTSUNNY   79  66  64 W9G16     30.03S
N LITTLE ROCK  PTSUNNY   78  70  77 SW9       30.03S
JACKSONVILLE   PTSUNNY   79  68  68 SW10      30.02S
SEARCY         MOSUNNY   80  69  69 VRB7      30.02F
HOT SPRINGS    CLOUDY    79  66  64 VRB5      30.05F
RUSSELLVILLE   PTSUNNY   78  64  61 W15       30.03S
CLINTON        PTSUNNY   77  68  73 SW9       30.02S
$$

ARZ036-302000-
EAST ARKANSAS

CITY           SKY/WX    TMP DP  RH WIND       PRES   REMARKS
WEST MEMPHIS   LGT RAIN  79  69  71 W8G21     29.98F
$$

ARZ050-053-066-070-073-302000-
SOUTHWEST ARKANSAS

CITY           SKY/WX    TMP DP  RH WIND       PRES   REMARKS
ARKADELPHIA    FAIR      81  72  74 SW12      30.04F HX  85
CAMDEN         CLOUDY    82  66  57 E6        30.03F HX  85
TEXARKANA      CLOUDY    75  69  81 N10       29.98F
EL DORADO      CLOUDY    74  68  81 NW9       30.02F
DE QUEEN       CLOUDY    75  69  81 N9        30.01F
$$

ARZ056-057-069-302000-
SOUTHEAST ARKANSAS

CITY           SKY/WX    TMP DP  RH WIND       PRES   REMARKS
PINE BLUFF     MOSUNNY   82  67  60 W12       30.02F
STUTTGART      CLOUDY    79  70  73 W13G18    30.03S
MONTICELLO     CLOUDY    71  67  87 W9        30.03F

$$





USA.gov is the U.S. government's official web portal to all federal, state and local government web resources and services.